Location: Misciano
(43.5000°N, 11.9500°E)
Time: 20:16:31
(UTC+00:00)

Cosmos 1666 - Pass Details

Date: 13 August 2020
Orbit: 498 x 519 km, 82.5° (Epoch: 21 September)

Event Time Altitude Azimuth Distance (km) Brightness Sun altitude
Exits shadow 21:12:13 25° 30° (NNE) 1,051 4.4 -25.5°
Drops below altitude 10° 21:13:58 10° 18° (NNE) 1,721 5.8 -25.7°
Sets 21:16:08 0° 14° (NNE) 2,614 6.9 -25.9°
